[[{"header":{"parameterUnit":"m.s-1","parameterCategory":1,"la1":30.2991,"la2":30.254,"lo1":-89.0895,"lo2":-89.0444,"dy":0.0017,"dx":0.0017,"nx":28,"ny":28,"refTime":"2023-08-29T21:00:00:Z","depth":0,"parameterNumber":2,"parameterNumberName":"U-component_of_WINDS"},"data":[0,0,0,0,0,0,0,0,0,0,0,0,0,0,0,0,0,0,0,0,0,0,0,0,0,0,0,0,0,0,0,0,0,0,0,0,0,0,0,0,0,0,0,0,0,0,0,0,0,0,0,0,0,0,0,0,0,0,-3.3866,-3.3866,0,-3.3836,-3.3835,-3.3835,-3.3726,-3.3723,-3.3721,-3.3718,-3.369,-3.3691,-3.3693,0,0,0,0,0,0,0,0,0,0,0,0,0,-3.3832,-3.3834,-3.3866,-3.3866,-3.3865,-3.3836,-3.3835,-3.3835,-3.3726,-3.3723,-3.372,-3.3717,-3.3689,-3.3691,-3.3693,0,0,0,0,0,0,0,0,0,0,0,0,0,-3.3829,-3.3834,-3.3866,-3.3807,-3.3802,-3.3836,-3.3835,-3.3835,-3.3727,-3.3723,-3.3719,-3.3716,-3.3689,-3.3691,-3.3693,-3.3782,0,0,-3.37,-3.3702,0,0,0,0,0,0,0,0,-3.383,-3.3831,-3.3817,-3.3812,-3.3805,-3.3781,-3.3813,-3.3817,-3.3728,-3.3755,-3.3718,-3.3714,-3.3723,-3.3723,-3.3725,-3.3781,-3.378,-3.3701,-3.3702,-3.3703,-3.3704,0,0,0,0,0,0,0,-3.383,-3.3831,-3.3854,-3.3816,-3.381,-3.3783,-3.3779,-3.3813,-3.3761,-3.3753,-3.3745,-3.3742,-3.372,-3.3723,-3.3724,-3.3779,-3.3701,-3.3703,-3.3704,-3.3705,-3.3907,-3.3911,0,0,0,0,0,0,-3.3838,-3.3832,-3.3855,-3.3853,-3.3808,-3.3787,-3.3782,-3.3792,-3.376,-3.3751,-3.3746,-3.3738,-3.3721,-3.3721,-3.3722,-3.3825,-3.3703,-3.3705,-3.3707,-3.3903,-3.3908,-3.3912,0,0,0,0,0,0,-3.3838,-3.3841,-3.3856,-3.384,-3.384,-3.3792,-3.3804,-3.3794,-3.3797,-3.3755,-3.3745,-3.3759,-3.3718,-3.3719,-3.3768,-3.3822,-3.3706,-3.3708,-3.3899,-3.3905,-3.391,-3.4031,0,0,0,0,0,0,-3.3837,-3.3842,-3.3875,-3.3842,-3.3842,-3.3903,-3.3808,-3.3796,-3.3801,-3.379,-3.3764,-3.3757,-3.3715,-3.3765,-3.3771,-3.3823,-3.371,-3.3894,-3.3901,-3.3908,-3.4022,-3.404,-3.4056,0,0,0,0,0,-3.3836,-3.391,-3.3877,-3.388,-3.3882,-3.3906,-3.3906,-3.3856,-3.3806,-3.3839,-3.3812,-3.3757,-3.3815,-3.3771,-3.3776,-3.3831,-3.389,-3.3899,-3.3908,-3.4014,-3.4036,-3.4055,0,0,0,0,0,0,-3.3951,-3.3905,-3.3867,-3.3932,-3.3924,-3.3887,-3.3927,-3.3881,-3.3887,-3.3876,-3.3815,-3.381,-3.3868,-3.3854,-3.3806,-3.3915,-3.3844,-3.3854,-3.3923,-3.3944,-3.396,-3.3963,-3.3712,0,0,0,0,0,-3.3984,-3.4007,-3.3965,-3.4027,-3.4024,-3.3977,-3.3985,-3.3948,-3.3937,-3.3933,-3.3909,-3.3901,-3.3917,-3.3929,-3.3942,-3.4019,-3.4012,-3.4059,-3.4076,-3.409,-3.41,-3.414,-3.4161,-3.3942,-3.3942,-3.3942,0,0,-3.4052,-3.403,-3.4048,-3.4049,-3.4038,-3.4064,-3.3975,-3.4005,-3.4024,-3.3937,-3.3983,-3.3965,-3.3952,-3.4016,-3.4043,-3.4006,-3.4159,-3.4101,-3.4113,-3.4115,-3.4152,-3.4173,-3.4191,-3.3948,-3.3947,-3.3946,0,0,-3.419,-3.4175,-3.4224,-3.4215,-3.4199,-3.4167,-3.4179,-3.4149,-3.4134,-3.4178,-3.4114,-3.4135,-3.4165,-3.4158,-3.4159,-3.4294,-3.4245,-3.43,-3.439,-3.443,-3.4447,-3.4462,-3.4512,-3.453,-3.431,-3.431,-3.4311,0,-3.4277,-3.4312,-3.4256,-3.4291,-3.4294,-3.4216,-3.4266,-3.426,-3.425,-3.4254,-3.4212,-3.4247,-3.4233,-3.4295,-3.4328,-3.433,-3.4343,-3.4303,-3.4449,-3.4463,-3.4477,-3.4523,-3.4542,-3.4317,-3.4316,-3.4316,-3.4315,0,-3.4421,-3.4447,-3.4489,-3.448,-3.4487,-3.453,-3.4481,-3.4496,-3.4457,-3.443,-3.4476,-3.4456,-3.4464,-3.4475,-3.4438,-3.4532,-3.451,-3.446,-3.4387,-3.4505,-3.4548,-3.4565,-3.4327,-3.4325,-3.4323,-3.4321,0,0,-3.4631,-3.459,-3.4606,-3.4601,-3.4578,-3.4597,-3.4637,-3.4643,-3.4657,-3.4653,-3.4685,-3.4712,-3.4665,-3.4666,-3.4627,-3.4662,-3.4772,-3.4608,-3.4606,-3.464,-3.4876,-3.4915,-3.4936,-3.4739,-3.4742,-3.4745,-3.4877,0,-3.4763,-3.4827,-3.4778,-3.4851,-3.4875,-3.4801,-3.4835,-3.4825,-3.4801,-3.4818,-3.4791,-3.4811,-3.4747,-3.4748,-3.4779,-3.4752,-3.4819,-3.4742,-3.477,-3.4772,-3.4777,-3.4958,-3.4999,-3.5125,-3.4893,-3.4896,-3.4898,0,-3.4925,-3.4927,-3.5003,-3.4975,-3.4983,-3.5015,-3.5017,-3.5034,-3.5021,-3.5001,-3.5002,-3.4954,-3.4992,-3.4919,-3.4971,-3.492,-3.4928,-3.4917,-3.4921,-3.4923,-3.4843,-3.4966,-3.5164,-3.5184,-3.4924,-3.4922,-3.492,0,-3.5072,-3.5094,-3.5142,-3.514,-3.5108,-3.5132,-3.512,-3.5103,-3.5111,-3.5113,-3.5117,-3.5124,-3.5128,-3.5135,-3.5091,-3.5042,-3.5149,-3.5073,-3.5135,-3.5136,-3.5162,-3.5161,-3.5365,-3.5166,-3.5165,-3.5165,-3.5164,0,-3.5225,-3.5275,-3.5208,-3.5238,-3.5292,-3.5234,-3.529,-3.527,-3.5256,-3.5281,-3.5217,-3.5243,-3.5182,-3.5202,-3.5167,-3.5216,-3.5218,-3.5204,-3.5195,-3.5211,-3.5213,-3.5216,-3.5207,-3.517,-3.5169,-3.5168,-3.5167,0,-3.54,-3.5356,-3.5404,-3.5369,-3.5362,-3.5403,-3.5374,-3.5401,-3.5371,-3.5405,-3.5409,-3.5364,-3.5384,-3.534,-3.5354,-3.5331,-3.5401,-3.5377,-3.5405,-3.5399,-3.5464,-3.5459,-3.5678,-3.5705,-3.5487,-3.5489,-3.5491,0,-3.5501,-3.5537,-3.5506,-3.5518,-3.5509,-3.553,-3.5536,-3.5481,-3.5491,-3.5479,-3.5508,-3.5522,-3.5531,-3.5566,-3.5536,-3.5546,-3.5523,-3.5599,-3.5524,-3.5539,-3.5525,-3.5524,-3.5528,-3.5615,-3.5618,-3.562,-3.5621,0,-3.5686,-3.5662,-3.5674,-3.5679,-3.5688,-3.5689,-3.5686,-3.57,-3.5641,-3.5656,-3.5675,-3.5681,-3.5695,-3.5711,-3.5714,-3.5702,-3.5653,-3.5645,-3.566,-3.5678,-3.5693,-3.5687,-3.5449,-3.5641,-3.5639,-3.5637,-3.5636,-3.5635,-3.5827,-3.5856,-3.5839,-3.5854,-3.5846,-3.5844,-3.5868,-3.5841,-3.5856,-3.5862,-3.5829,-3.5855,-3.5842,-3.5841,-3.5835,-3.5855,-3.5821,-3.5843,-3.5849,-3.5855,-3.5866,-3.5689,-3.5856,-3.5855,-3.5855,-3.5854,-3.5854,0,-3.6009,-3.5994,-3.6009,-3.6006,-3.6019,-3.5969,-3.5963,-3.5977,-3.6001,-3.5992,-3.6002,-3.6024,-3.6039,-3.6009,-3.6019,-3.6042,-3.6019,-3.6046,-3.6045,-3.6043,-3.5896,-3.5882,-3.6064,-3.6064,-3.6064,-3.6064,-3.6064,-3.6064,-3.6106,-3.6153,-3.6128,-3.617,-3.6154,-3.6179,-3.618,-3.6179,-3.6171,-3.6199,-3.621,-3.619,-3.6173,-3.6182,-3.6194,-3.6184,-3.6192,-3.6227,-3.6211,-3.6074,-3.6053,-3.6034,-3.6021,-3.6229,-3.6229,-3.6356,-3.6357,-3.6358]},{"header":{"parameterUnit":"m.s-1","parameterCategory":1,"la1":30.2991,"la2":30.254,"lo1":-89.0895,"lo2":-89.0444,"dy":0.0017,"dx":0.0017,"nx":28,"ny":28,"refTime":"2023-08-29T21:00:00:Z","depth":0,"parameterNumber":3,"parameterNumberName":"V-component_of_WINDS"},"data":[0,0,0,0,0,0,0,0,0,0,0,0,0,0,0,0,0,0,0,0,0,0,0,0,0,0,0,0,0,0,0,0,0,0,0,0,0,0,0,0,0,0,0,0,0,0,0,0,0,0,0,0,0,0,0,0,0,0,-2.2427,-2.2427,0,-2.2377,-2.2377,-2.2376,-2.2335,-2.2335,-2.2334,-2.2334,-2.2281,-2.228,-2.2279,0,0,0,0,0,0,0,0,0,0,0,0,0,-2.2484,-2.2483,-2.2427,-2.2427,-2.2426,-2.2377,-2.2377,-2.2376,-2.2335,-2.2335,-2.2334,-2.2334,-2.2281,-2.228,-2.2278,0,0,0,0,0,0,0,0,0,0,0,0,0,-2.2449,-2.2483,-2.2427,-2.24,-2.2397,-2.2378,-2.2377,-2.2376,-2.2335,-2.2335,-2.2334,-2.2334,-2.2281,-2.228,-2.2278,-2.2281,0,0,-2.2274,-2.2273,0,0,0,0,0,0,0,0,-2.2451,-2.2447,-2.2405,-2.2402,-2.2398,-2.2362,-2.2377,-2.2344,-2.2336,-2.2359,-2.2334,-2.2333,-2.2308,-2.2304,-2.2296,-2.2279,-2.2277,-2.2273,-2.2272,-2.2272,-2.2271,0,0,0,0,0,0,0,-2.2454,-2.2449,-2.2407,-2.2404,-2.24,-2.2389,-2.2383,-2.2371,-2.2337,-2.2357,-2.2354,-2.2348,-2.2306,-2.2298,-2.2295,-2.2276,-2.2273,-2.2272,-2.2271,-2.2271,-2.2257,-2.2258,0,0,0,0,0,0,-2.2461,-2.2452,-2.2409,-2.2406,-2.2424,-2.2389,-2.2382,-2.2374,-2.2337,-2.2331,-2.2349,-2.2347,-2.2301,-2.2296,-2.2293,-2.2293,-2.2272,-2.227,-2.227,-2.2256,-2.2257,-2.2258,0,0,0,0,0,0,-2.2462,-2.2458,-2.2411,-2.2428,-2.2421,-2.2388,-2.238,-2.2374,-2.2365,-2.2332,-2.2325,-2.2347,-2.23,-2.2295,-2.2284,-2.2291,-2.227,-2.2268,-2.2256,-2.2257,-2.2257,-2.2295,0,0,0,0,0,0,-2.2464,-2.2458,-2.246,-2.2428,-2.242,-2.2405,-2.238,-2.2373,-2.2363,-2.2359,-2.2328,-2.2322,-2.2299,-2.2287,-2.2283,-2.2288,-2.2267,-2.2255,-2.2256,-2.2257,-2.2293,-2.2297,-2.23,0,0,0,0,0,-2.2466,-2.2472,-2.246,-2.2456,-2.2422,-2.2405,-2.2401,-2.2375,-2.2364,-2.2365,-2.2343,-2.2323,-2.2291,-2.2286,-2.2281,-2.2286,-2.2255,-2.2256,-2.2257,-2.2291,-2.2296,-2.23,0,0,0,0,0,0,-2.2505,-2.2468,-2.2454,-2.245,-2.2431,-2.2399,-2.2399,-2.2381,-2.2365,-2.2362,-2.233,-2.2323,-2.2316,-2.23,-2.2296,-2.2286,-2.227,-2.227,-2.2297,-2.2302,-2.2305,-2.2309,-2.2266,0,0,0,0,0,-2.2514,-2.2504,-2.2471,-2.2471,-2.2462,-2.2432,-2.2424,-2.2406,-2.2385,-2.2376,-2.2354,-2.2333,-2.2318,-2.2309,-2.2293,-2.229,-2.2282,-2.2291,-2.2295,-2.2298,-2.2298,-2.2294,-2.2297,-2.2262,-2.2262,-2.2262,0,0,-2.2531,-2.2509,-2.2505,-2.2478,-2.2462,-2.2451,-2.2426,-2.2417,-2.2408,-2.2375,-2.2364,-2.2346,-2.2321,-2.2314,-2.2309,-2.23,-2.2306,-2.2299,-2.2302,-2.2301,-2.2296,-2.2299,-2.2302,-2.2263,-2.2263,-2.2262,0,0,-2.2556,-2.2539,-2.2537,-2.252,-2.2495,-2.2475,-2.2474,-2.2444,-2.2431,-2.242,-2.2394,-2.2383,-2.2358,-2.2341,-2.2329,-2.2346,-2.2327,-2.2342,-2.2361,-2.2357,-2.236,-2.2362,-2.2368,-2.237,-2.2342,-2.2342,-2.2343,0,-2.258,-2.2565,-2.2537,-2.2529,-2.2518,-2.2487,-2.2483,-2.2469,-2.244,-2.2432,-2.2422,-2.2389,-2.237,-2.2358,-2.2362,-2.2354,-2.2351,-2.2345,-2.2362,-2.2364,-2.2366,-2.237,-2.2373,-2.2344,-2.2344,-2.2344,-2.2344,0,-2.2595,-2.2584,-2.2585,-2.2558,-2.2547,-2.2541,-2.2512,-2.2503,-2.2485,-2.2466,-2.2454,-2.2429,-2.2408,-2.2403,-2.2386,-2.2388,-2.2383,-2.2368,-2.2351,-2.2372,-2.2375,-2.2377,-2.2347,-2.2347,-2.2346,-2.2345,0,0,-2.2645,-2.2602,-2.2603,-2.259,-2.2559,-2.255,-2.2542,-2.2521,-2.2514,-2.2495,-2.2487,-2.2466,-2.2451,-2.2437,-2.2417,-2.2414,-2.2428,-2.2399,-2.2398,-2.2405,-2.2428,-2.244,-2.2442,-2.2415,-2.2415,-2.2415,-2.243,0,-2.2665,-2.265,-2.2625,-2.2618,-2.2607,-2.2577,-2.2569,-2.2549,-2.253,-2.2517,-2.2496,-2.2482,-2.2464,-2.2455,-2.245,-2.2428,-2.2432,-2.2426,-2.2406,-2.2406,-2.2413,-2.2444,-2.2457,-2.2472,-2.2431,-2.2432,-2.2432,0,-2.2687,-2.267,-2.2662,-2.2631,-2.2626,-2.262,-2.2598,-2.2587,-2.2562,-2.2549,-2.2533,-2.2511,-2.2499,-2.2483,-2.2466,-2.2463,-2.2453,-2.244,-2.244,-2.2437,-2.242,-2.2442,-2.2476,-2.2478,-2.2434,-2.2434,-2.2434,0,-2.2724,-2.2698,-2.269,-2.268,-2.2644,-2.264,-2.2625,-2.26,-2.2589,-2.2569,-2.2561,-2.2541,-2.2529,-2.2513,-2.2485,-2.2477,-2.2471,-2.2453,-2.2458,-2.2459,-2.2459,-2.2459,-2.2491,-2.2453,-2.2453,-2.2453,-2.2453,0,-2.2749,-2.2746,-2.2706,-2.2701,-2.2695,-2.2665,-2.266,-2.2641,-2.2619,-2.2609,-2.2581,-2.2572,-2.2536,-2.2522,-2.25,-2.2489,-2.2484,-2.2471,-2.2466,-2.2474,-2.2475,-2.2467,-2.2465,-2.2453,-2.2453,-2.2453,-2.2453,0,-2.279,-2.2763,-2.2752,-2.2718,-2.271,-2.2707,-2.2677,-2.267,-2.2649,-2.2637,-2.2632,-2.2599,-2.2581,-2.2551,-2.2525,-2.251,-2.2502,-2.2493,-2.2511,-2.2507,-2.2514,-2.2514,-2.2542,-2.2543,-2.2504,-2.2505,-2.2505,0,-2.2808,-2.2804,-2.277,-2.2762,-2.2747,-2.2734,-2.2722,-2.2692,-2.2681,-2.2652,-2.2648,-2.2628,-2.261,-2.2583,-2.2555,-2.2534,-2.2524,-2.2535,-2.252,-2.2528,-2.2523,-2.2524,-2.2523,-2.2539,-2.2539,-2.254,-2.254,0,-2.2842,-2.2829,-2.2814,-2.2794,-2.2781,-2.2763,-2.2744,-2.2739,-2.2703,-2.2692,-2.2674,-2.266,-2.2632,-2.2612,-2.2587,-2.257,-2.2549,-2.2545,-2.2545,-2.2553,-2.2564,-2.2557,-2.252,-2.2544,-2.2544,-2.2544,-2.2543,-2.2543,-2.2872,-2.2867,-2.2842,-2.2825,-2.2808,-2.279,-2.2782,-2.276,-2.2744,-2.272,-2.2702,-2.2685,-2.2659,-2.2623,-2.2607,-2.2591,-2.2582,-2.2582,-2.2582,-2.2583,-2.2585,-2.2566,-2.2587,-2.2586,-2.2586,-2.2586,-2.2586,0,-2.2905,-2.2887,-2.2872,-2.2846,-2.2833,-2.2815,-2.2792,-2.2782,-2.2767,-2.2745,-2.2728,-2.2706,-2.2686,-2.2657,-2.2634,-2.2628,-2.2617,-2.2623,-2.2623,-2.2619,-2.2595,-2.2597,-2.2631,-2.2631,-2.2631,-2.2631,-2.2631,-2.2631,-2.292,-2.291,-2.2894,-2.2874,-2.2856,-2.2839,-2.2828,-2.2811,-2.2793,-2.277,-2.2754,-2.2735,-2.2709,-2.2684,-2.2664,-2.2656,-2.2649,-2.2657,-2.2646,-2.2625,-2.2621,-2.2617,-2.2618,-2.2656,-2.2656,-2.267,-2.267,-2.2671]}]]